Location: Newark
(51.8900°N, 2.0780°W)
Time: 00:42:36
(UTC+00:00)

Envisat - Pass Details

Date: 25 November 2019
Orbit: 764 x 766 km, 98.1° (Epoch: 05 December)

Event Time Altitude Azimuth Distance (km) Brightness Sun altitude
Rises 18:34:12 0° 184° (S) 3,221 6.4 -22.1°
Reaches altitude 10° 18:36:36 10° 192° (SSW) 2,299 5.7 -22.5°
Maximum altitude 18:41:24 42° 263° (W) 1,085 4.2 -23.2°
Drops below altitude 10° 18:46:14 10° 334° (NNW) 2,314 5.7 -24.0°
Sets 18:48:41 0° 341° (NNW) 3,245 6.4 -24.4°
